Tracking 20623 objects as of 3-Apr-2020
HD Live streaming from Space Station
objects crossing your sky now

SL-8 R/B

Track SL-8 R/B now!
10-day predictions


NORAD ID: 11321
Int'l Code: 1979-028B
Perigee: 970.5 km
Apogee: 996.5 km
Inclination: 82.9 °
Period: 104.6 minutes
Semi major axis: 7354 km
RCS: 4.5437 m2 (large)
Launch date: April 7, 1979
Source: Commonwealth of Independent States (former USSR) (CIS)
Launch site: PLESETSK MISSILE AND SPACE COMPLEX (PKMTR)

Note: This is a ROCKET BODY
aabbcc
Your satellite tracking list
Your tracking list is empty




NASA's NSSDC Master Catalog

Two Line Element Set (TLE):
1 11321U 79028B   20094.19787060  .00000012  00000-0 -32928-5 0  9990
2 11321  82.9245 342.1849 0017688 252.5808 264.2838 13.76497581 58491
Source of the keplerian elements: AFSPC